Starlink 30837

operational
NORAD ID: 58212 Int'l Des: 2023-170 Owner: SPXS Country: US Constellation: starlink
LEOCIRCULAR

关于 Starlink 30837

正在加载描述...

实时位置

正在加载3D地球...

即将过境

高度历史

Altitude vs Time

uPlot chart will show altitude changes over time

两行轨道根数

1 58212U 23170G 25258.16532681 -.00001407 00000-0 -89098-4 0 9997
2 58212 43.0075 69.8562 0002594 271.9531 88.1014 15.02533093103875
Epoch: Sep 15, 2025 • Age: 10 hours

当前状态

高度 560.2 km
速度 7.58 km/s
星下点 25.34°N, 9.93°E
发射日期 Nov 4, 2023
运行时间 1.8 years
类型 internet

技术详情

分类 Payload
质量 730.00 kg
干质量 700.00 kg
总质量 730.00 kg
长度 0.30 m
直径 4.10 m
跨度 29.00 m
形状 Box + pan
制造商 SPXS
平台类型 Starlink V2M
阶段状态 In Orbit
所有者/国家 SPXS/US

大型星座

Loading constellations...